QPF
0.03 0.03 0.02 0.02 0.02 0.02 0.02 0.02 0.01 0.02 0.03 0.03 0.02 0.02 0.02 0.02 0.02 0.02 0.01 0.00 0.00 0.01 0.03 0.03 0.04 0.03 0.05 0.04 0.04 0.04 0.03 0.03 0.03 0.03 0.04 0.02 0.02 0.03 0.02 0.01 0.02 0.02 0.03
0.03 0.03 0.03 0.02 0.02 0.02 0.01 0.01 0.01 0.02 0.02 0.03 0.03 0.03 0.03 0.03 0.03 0.02 0.01 0.01 0.00 0.01 0.02 0.04 0.05 0.06 0.07 0.06 0.06 0.06 0.05 0.05 0.05 0.05 0.05 0.05 0.05 0.04 0.02 0.01 0.01 0.03 0.03
0.03 0.03 0.03 0.02 0.01 0.02 0.01 0.01 0.02 0.01 0.01 0.03 0.03 0.03 0.05 0.04 0.04 0.03 0.03 0.03 0.02 0.02 0.03 0.04 0.05 0.06 0.06 0.09 0.08 0.07 0.06 0.06 0.06 0.06 0.07 0.08 0.08 0.06 0.03 0.01 0.01 0.03 0.04
0.01 0.01 0.02 0.02 0.01 0.01 0.00 0.00 0.01 0.01 0.02 0.03 0.04 0.03 0.04 0.03 0.03 0.02 0.03 0.03 0.01 0.02 0.03 0.04 0.04 0.05 0.04 0.07 0.06 0.07 0.05 0.06 0.06 0.07 0.07 0.06 0.06 0.06 0.05 0.04 0.02 0.02 0.02
0.00 0.01 0.01 0.01 0.00 0.00 0.00 0.00 0.01 0.01 0.02 0.03 0.04 0.04 0.05 0.04 0.03 0.03 0.04 0.04 0.04 0.03 0.03 0.02 0.03 0.03 0.03 0.04 0.04 0.05 0.05 0.06 0.06 0.07 0.07 0.07 0.08 0.06 0.06 0.05 0.05 0.03 0.02
0.00 0.00 0.00 0.00 0.00 0.00 0.00 0.00 0.01 0.01 0.02 0.03 0.02 0.03 0.04 0.04 0.05 0.05 0.05 0.04 0.04 0.04 0.03 0.02 0.03 0.03 0.04 0.03 0.02 0.03 0.05 0.07 0.07 0.07 0.07 0.07 0.06 0.06 0.06 0.05 0.05 0.06 0.04
0.00 0.00 0.00 0.00 0.00 0.00 0.00 0.00 0.01 0.01 0.02 0.02 0.02 0.02 0.04 0.04 0.04 0.03 0.04 0.03 0.03 0.04 0.03 0.03 0.04 0.04 0.04 0.03 0.02 0.03 0.05 0.08 0.08 0.07 0.06 0.05 0.05 0.05 0.06 0.05 0.04 0.05 0.04
0.00 0.00 0.00 0.00 0.00 0.00 0.00 0.00 0.01 0.01 0.02 0.02 0.03 0.03 0.04 0.03 0.03 0.03 0.02 0.02 0.02 0.02 0.02 0.02 0.02 0.02 0.03 0.02 0.03 0.04 0.05 0.07 0.06 0.05 0.06 0.05 0.04 0.05 0.06 0.05 0.04 0.05 0.04
0.00 0.00 0.00 0.00 0.00 0.00 0.00 0.00 0.00 0.01 0.02 0.02 0.03 0.03 0.03 0.03 0.04 0.05 0.04 0.03 0.03 0.01 0.02 0.02 0.02 0.02 0.02 0.03 0.03 0.05 0.05 0.05 0.06 0.06 0.05 0.05 0.04 0.05 0.05 0.05 0.05 0.06 0.05
0.00 0.00 0.00 0.00 0.00 0.00 0.00 0.00 0.01 0.01 0.01 0.01 0.02 0.02 0.03 0.03 0.03 0.04 0.03 0.03 0.02 0.01 0.03 0.02 0.03 0.02 0.02 0.04 0.05 0.04 0.05 0.05 0.07 0.08 0.06 0.05 0.05 0.05 0.04 0.05 0.05 0.06 0.07
0.01 0.00 0.00 0.00 0.00 0.00 0.00 0.01 0.01 0.01 0.01 0.01 0.02 0.02 0.02 0.02 0.02 0.02 0.02 0.02 0.02 0.03 0.04 0.03 0.04 0.03 0.03 0.05 0.05 0.05 0.05 0.06 0.08 0.08 0.07 0.05 0.06 0.05 0.04 0.05 0.05 0.06 0.07
0.00 0.00 0.00 0.00 0.00 0.00 0.00 0.01 0.01 0.02 0.01 0.01 0.02 0.02 0.01 0.01 0.01 0.01 0.01 0.01 0.01 0.01 0.02 0.03 0.04 0.03 0.03 0.04 0.04 0.04 0.05 0.06 0.05 0.06 0.04 0.04 0.04 0.05 0.05 0.05 0.05 0.05 0.06
0.00 0.00 0.00 0.00 0.00 0.00 0.00 0.00 0.01 0.02 0.02 0.02 0.01 0.02 0.01 0.01 0.01 0.01 0.01 0.01 0.01 0.01 0.01 0.02 0.02 0.03 0.04 0.04 0.04 0.05 0.04 0.05 0.04 0.04 0.04 0.03 0.03 0.03 0.04 0.04 0.04 0.05 0.04
0.00 0.00 0.00 0.00 0.00 0.00 0.00 0.00 0.00 0.01 0.02 0.02 0.01 0.01 0.01 0.00 0.00 0.01 0.01 0.01 0.01 0.01 0.02 0.02 0.01 0.03 0.03 0.03 0.03 0.03 0.03 0.04 0.03 0.03 0.04 0.04 0.04 0.03 0.03 0.04 0.04 0.05 0.06
0.00 0.00 0.00 0.00 0.00 0.00 0.00 0.00 0.00 0.00 0.01 0.02 0.02 0.01 0.00 0.00 0.00 0.01 0.01 0.01 0.01 0.01 0.02 0.02 0.02 0.03 0.03 0.02 0.02 0.02 0.02 0.02 0.02 0.03 0.03 0.04 0.04 0.03 0.04 0.05 0.05 0.07 0.08
0.00 0.00 0.00 0.00 0.00 0.00 0.00 0.00 0.01 0.01 0.01 0.01 0.02 0.01 0.01 0.00 0.01 0.01 0.01 0.01 0.01 0.01 0.02 0.02 0.02 0.02 0.01 0.02 0.01 0.01 0.02 0.02 0.02 0.03 0.03 0.03 0.04 0.03 0.03 0.03 0.03 0.04 0.05
0.00 0.00 0.00 0.01 0.01 0.00 0.00 0.01 0.01 0.01 0.01 0.01 0.02 0.02 0.01 0.01 0.01 0.01 0.01 0.01 0.01 0.01 0.01 0.01 0.02 0.02 0.02 0.03 0.02 0.02 0.03 0.02 0.02 0.02 0.02 0.02 0.02 0.03 0.03 0.03 0.03 0.02 0.03
0.01 0.01 0.01 0.01 0.01 0.01 0.01 0.01 0.01 0.01 0.01 0.02 0.02 0.02 0.02 0.01 0.01 0.01 0.01 0.01 0.01 0.01 0.02 0.01 0.02 0.02 0.02 0.03 0.03 0.02 0.02 0.01 0.02 0.02 0.02 0.02 0.02 0.02 0.03 0.03 0.03 0.03 0.02
0.01 0.01 0.01 0.01 0.01 0.01 0.01 0.01 0.01 0.01 0.01 0.01 0.01 0.01 0.01 0.01 0.01 0.01 0.01 0.01 0.02 0.02 0.02 0.02 0.02 0.02 0.02 0.03 0.02 0.02 0.02 0.01 0.01 0.02 0.02 0.02 0.02 0.02 0.02 0.03 0.03 0.03 0.02
0.00 0.01 0.01 0.02 0.01 0.01 0.01 0.01 0.00 0.00 0.00 0.00 0.01 0.01 0.00 0.00 0.01 0.01 0.01 0.01 0.01 0.01 0.01 0.01 0.00 0.01 0.01 0.01 0.01 0.01 0.01 0.01 0.01 0.02 0.02 0.02 0.03 0.03 0.03 0.04 0.04 0.04 0.03
0.01 0.01 0.01 0.01 0.01 0.01 0.01 0.00 0.00 0.00 0.00 0.01 0.01 0.01 0.01 0.01 0.01 0.01 0.01 0.01 0.01 0.01 0.01 0.01 0.01 0.01 0.01 0.02 0.01 0.01 0.01 0.01 0.01 0.01 0.01 0.02 0.02 0.02 0.03 0.03 0.04 0.04 0.03
0.01 0.00 0.00 0.01 0.01 0.01 0.01 0.01 0.01 0.01 0.01 0.01 0.01 0.02 0.02 0.01 0.01 0.02 0.01 0.02 0.01 0.01 0.01 0.01 0.01 0.01 0.01 0.01 0.01 0.01 0.01 0.01 0.01 0.01 0.02 0.02 0.02 0.02 0.02 0.03 0.02 0.03 0.04
0.00 0.00 0.00 0.01 0.01 0.01 0.02 0.02 0.02 0.02 0.02 0.02 0.02 0.02 0.01 0.02 0.02 0.02 0.02 0.02 0.02 0.02 0.01 0.01 0.01 0.01 0.01 0.01 0.01 0.01 0.02 0.02 0.02 0.02 0.03 0.03 0.02 0.02 0.02 0.02 0.03 0.05 0.06
0.01 0.00 0.01 0.01 0.01 0.02 0.01 0.01 0.01 0.01 0.01 0.01 0.02 0.02 0.02 0.02 0.02 0.02 0.02 0.02 0.02 0.02 0.01 0.02 0.02 0.01 0.01 0.01 0.02 0.02 0.02 0.03 0.03 0.03 0.03 0.02 0.01 0.01 0.02 0.02 0.03 0.04 0.06
0.00 0.00 0.00 0.01 0.01 0.02 0.02 0.02 0.01 0.01 0.01 0.01 0.01 0.02 0.02 0.02 0.03 0.02 0.02 0.02 0.02 0.02 0.02 0.01 0.02 0.02 0.03 0.03 0.03 0.02 0.02 0.03 0.02 0.02 0.02 0.01 0.01 0.02 0.03 0.03 0.04 0.04 0.04
0.00 0.00 0.00 0.01 0.01 0.02 0.02 0.02 0.02 0.01 0.01 0.01 0.01 0.01 0.01 0.03 0.03 0.03 0.03 0.02 0.02 0.01 0.01 0.02 0.02 0.02 0.02 0.02 0.02 0.03 0.02 0.02 0.02 0.02 0.01 0.02 0.03 0.04 0.04 0.05 0.06 0.07 0.09
MSLP
1013.04 1013.19 1013.37 1013.55 1013.70 1013.83 1013.92 1013.98 1014.01 1014.03 1014.03 1014.01 1013.96 1013.88 1013.76 1013.61 1013.42 1013.23 1013.04 1012.88 1012.77 1012.72 1012.74 1012.83 1012.97 1013.15 1013.36 1013.56 1013.74 1013.89 1014.01 1014.10 1014.16 1014.21 1014.24 1014.27 1014.29 1014.30 1014.29 1014.27 1014.26 1014.25 1014.29
1012.92 1013.07 1013.23 1013.38 1013.49 1013.57 1013.63 1013.67 1013.72 1013.79 1013.87 1013.95 1014.00 1014.01 1013.95 1013.81 1013.60 1013.35 1013.09 1012.85 1012.67 1012.57 1012.57 1012.67 1012.84 1013.06 1013.30 1013.52 1013.71 1013.85 1013.95 1014.00 1014.03 1014.05 1014.06 1014.07 1014.08 1014.07 1014.05 1014.01 1013.96 1013.93 1013.94
1012.84 1013.00 1013.16 1013.28 1013.36 1013.39 1013.40 1013.42 1013.47 1013.57 1013.71 1013.87 1014.01 1014.09 1014.08 1013.97 1013.75 1013.46 1013.13 1012.82 1012.57 1012.42 1012.39 1012.48 1012.67 1012.91 1013.16 1013.39 1013.58 1013.70 1013.77 1013.79 1013.79 1013.78 1013.77 1013.77 1013.78 1013.77 1013.75 1013.70 1013.65 1013.60 1013.58
1012.77 1012.95 1013.11 1013.23 1013.28 1013.28 1013.25 1013.23 1013.27 1013.37 1013.54 1013.74 1013.94 1014.08 1014.12 1014.03 1013.80 1013.48 1013.10 1012.72 1012.41 1012.21 1012.14 1012.21 1012.38 1012.62 1012.87 1013.10 1013.27 1013.37 1013.41 1013.40 1013.37 1013.34 1013.33 1013.33 1013.35 1013.36 1013.36 1013.33 1013.28 1013.24 1013.21
1012.66 1012.87 1013.07 1013.20 1013.24 1013.22 1013.15 1013.10 1013.10 1013.18 1013.35 1013.56 1013.79 1013.96 1014.03 1013.95 1013.73 1013.38 1012.96 1012.54 1012.17 1011.91 1011.79 1011.82 1011.96 1012.17 1012.40 1012.61 1012.76 1012.84 1012.85 1012.82 1012.77 1012.73 1012.71 1012.73 1012.77 1012.81 1012.84 1012.85 1012.83 1012.81 1012.80
1012.50 1012.75 1012.98 1013.14 1013.20 1013.17 1013.08 1012.98 1012.94 1012.98 1013.12 1013.32 1013.54 1013.71 1013.79 1013.73 1013.51 1013.16 1012.72 1012.27 1011.85 1011.54 1011.37 1011.34 1011.43 1011.59 1011.78 1011.95 1012.07 1012.12 1012.11 1012.05 1011.99 1011.95 1011.94 1011.97 1012.03 1012.11 1012.19 1012.24 1012.27 1012.29 1012.31
1012.30 1012.57 1012.84 1013.03 1013.12 1013.09 1012.98 1012.86 1012.77 1012.76 1012.84 1013.01 1013.20 1013.37 1013.45 1013.40 1013.20 1012.86 1012.42 1011.95 1011.51 1011.15 1010.92 1010.83 1010.85 1010.95 1011.08 1011.20 1011.27 1011.29 1011.25 1011.17 1011.10 1011.04 1011.04 1011.08 1011.17 1011.28 1011.40 1011.50 1011.59 1011.66 1011.72
1012.08 1012.36 1012.66 1012.88 1012.99 1012.97 1012.86 1012.72 1012.59 1012.53 1012.56 1012.67 1012.83 1012.99 1013.07 1013.04 1012.86 1012.55 1012.13 1011.67 1011.22 1010.83 1010.55 1010.38 1010.33 1010.35 1010.40 1010.46 1010.47 1010.44 1010.37 1010.27 1010.17 1010.10 1010.09 1010.13 1010.22 1010.35 1010.50 1010.65 1010.79 1010.91 1011.04
1011.88 1012.17 1012.47 1012.72 1012.84 1012.84 1012.74 1012.57 1012.42 1012.31 1012.30 1012.37 1012.50 1012.64 1012.73 1012.72 1012.58 1012.31 1011.94 1011.50 1011.05 1010.64 1010.32 1010.09 1009.95 1009.89 1009.86 1009.84 1009.79 1009.70 1009.58 1009.45 1009.32 1009.22 1009.17 1009.18 1009.26 1009.38 1009.54 1009.71 1009.89 1010.07 1010.26
1011.77 1012.04 1012.34 1012.59 1012.73 1012.74 1012.65 1012.48 1012.31 1012.18 1012.13 1012.17 1012.27 1012.39 1012.49 1012.51 1012.42 1012.20 1011.88 1011.48 1011.06 1010.64 1010.28 1010.00 1009.79 1009.63 1009.52 1009.41 1009.29 1009.14 1008.97 1008.78 1008.60 1008.45 1008.35 1008.31 1008.34 1008.42 1008.55 1008.73 1008.93 1009.15 1009.41
1011.79 1012.04 1012.32 1012.57 1012.71 1012.74 1012.65 1012.49 1012.32 1012.18 1012.11 1012.12 1012.20 1012.32 1012.42 1012.46 1012.41 1012.25 1011.98 1011.63 1011.23 1010.82 1010.44 1010.10 1009.82 1009.59 1009.39 1009.20 1009.00 1008.79 1008.55 1008.30 1008.06 1007.85 1007.67 1007.55 1007.50 1007.52 1007.60 1007.74 1007.95 1008.20 1008.51
1011.94 1012.18 1012.45 1012.69 1012.83 1012.86 1012.80 1012.66 1012.50 1012.36 1012.28 1012.27 1012.32 1012.42 1012.51 1012.56 1012.53 1012.40 1012.18 1011.87 1011.50 1011.10 1010.70 1010.33 1009.99 1009.69 1009.41 1009.15 1008.88 1008.60 1008.30 1007.99 1007.68 1007.39 1007.13 1006.91 1006.76 1006.69 1006.70 1006.79 1006.97 1007.24 1007.59
1012.23 1012.47 1012.73 1012.95 1013.09 1013.14 1013.10 1012.98 1012.84 1012.71 1012.62 1012.59 1012.62 1012.67 1012.74 1012.76 1012.73 1012.61 1012.41 1012.12 1011.76 1011.37 1010.97 1010.57 1010.19 1009.84 1009.50 1009.18 1008.85 1008.51 1008.16 1007.79 1007.41 1007.04 1006.69 1006.38 1006.12 1005.95 1005.87 1005.90 1006.04 1006.30 1006.67
1012.59 1012.84 1013.10 1013.32 1013.47 1013.54 1013.53 1013.45 1013.33 1013.22 1013.12 1013.06 1013.04 1013.03 1013.03 1013.01 1012.94 1012.79 1012.58 1012.29 1011.95 1011.56 1011.15 1010.74 1010.33 1009.94 1009.57 1009.20 1008.83 1008.45 1008.05 1007.63 1007.20 1006.76 1006.32 1005.92 1005.57 1005.29 1005.12 1005.07 1005.15 1005.39 1005.76
1012.97 1013.24 1013.51 1013.74 1013.91 1014.01 1014.03 1013.99 1013.91 1013.80 1013.70 1013.60 1013.51 1013.43 1013.34 1013.23 1013.09 1012.89 1012.64 1012.34 1011.99 1011.60 1011.19 1010.78 1010.36 1009.96 1009.56 1009.16 1008.77 1008.36 1007.93 1007.47 1007.00 1006.50 1006.00 1005.52 1005.08 1004.71 1004.45 1004.32 1004.34 1004.53 1004.89
1013.28 1013.59 1013.88 1014.13 1014.32 1014.46 1014.53 1014.53 1014.49 1014.40 1014.27 1014.13 1013.97 1013.79 1013.60 1013.39 1013.15 1012.88 1012.58 1012.25 1011.88 1011.50 1011.10 1010.69 1010.28 1009.88 1009.47 1009.07 1008.66 1008.23 1007.79 1007.31 1006.80 1006.27 1005.72 1005.18 1004.67 1004.22 1003.88 1003.67 1003.62 1003.76 1004.08
1013.50 1013.85 1014.16 1014.43 1014.65 1014.83 1014.95 1015.00 1014.99 1014.92 1014.78 1014.59 1014.36 1014.09 1013.79 1013.47 1013.13 1012.78 1012.43 1012.06 1011.69 1011.31 1010.93 1010.54 1010.15 1009.76 1009.37 1008.96 1008.55 1008.12 1007.66 1007.17 1006.64 1006.08 1005.50 1004.91 1004.35 1003.83 1003.42 1003.13 1003.01 1003.08 1003.34
1013.61 1013.98 1014.31 1014.60 1014.86 1015.08 1015.24 1015.34 1015.37 1015.31 1015.17 1014.94 1014.65 1014.29 1013.89 1013.48 1013.05 1012.64 1012.24 1011.86 1011.49 1011.13 1010.78 1010.43 1010.07 1009.70 1009.32 1008.93 1008.51 1008.07 1007.61 1007.10 1006.56 1005.98 1005.37 1004.75 1004.14 1003.57 1003.10 1002.74 1002.54 1002.53 1002.71
1013.64 1014.02 1014.36 1014.67 1014.95 1015.20 1015.40 1015.55 1015.61 1015.57 1015.42 1015.17 1014.82 1014.40 1013.94 1013.45 1012.97 1012.51 1012.09 1011.71 1011.37 1011.05 1010.74 1010.43 1010.11 1009.78 1009.42 1009.03 1008.61 1008.17 1007.68 1007.16 1006.60 1006.00 1005.37 1004.71 1004.07 1003.45 1002.92 1002.49 1002.22 1002.12 1002.21
1013.65 1014.03 1014.36 1014.67 1014.96 1015.23 1015.46 1015.63 1015.71 1015.69 1015.55 1015.28 1014.91 1014.45 1013.95 1013.42 1012.91 1012.44 1012.03 1011.68 1011.37 1011.10 1010.85 1010.60 1010.33 1010.02 1009.68 1009.30 1008.88 1008.41 1007.91 1007.36 1006.77 1006.14 1005.48 1004.80 1004.11 1003.46 1002.87 1002.38 1002.03 1001.85 1001.85
1013.72 1014.07 1014.38 1014.67 1014.95 1015.22 1015.45 1015.64 1015.73 1015.72 1015.58 1015.31 1014.93 1014.46 1013.94 1013.41 1012.90 1012.44 1012.06 1011.75 1011.50 1011.29 1011.11 1010.91 1010.69 1010.42 1010.10 1009.72 1009.28 1008.79 1008.25 1007.67 1007.05 1006.38 1005.69 1004.97 1004.26 1003.56 1002.93 1002.38 1001.96 1001.70 1001.61
1013.88 1014.19 1014.46 1014.72 1014.97 1015.22 1015.44 1015.62 1015.71 1015.70 1015.56 1015.29 1014.91 1014.44 1013.92 1013.40 1012.92 1012.50 1012.16 1011.90 1011.71 1011.57 1011.45 1011.31 1011.13 1010.89 1010.58 1010.20 1009.75 1009.23 1008.66 1008.04 1007.37 1006.67 1005.94 1005.19 1004.44 1003.71 1003.04 1002.44 1001.97 1001.63 1001.47
1014.14 1014.40 1014.62 1014.83 1015.04 1015.25 1015.45 1015.60 1015.68 1015.65 1015.51 1015.24 1014.86 1014.40 1013.90 1013.40 1012.94 1012.56 1012.27 1012.07 1011.93 1011.85 1011.78 1011.69 1011.55 1011.34 1011.04 1010.66 1010.19 1009.65 1009.04 1008.38 1007.68 1006.94 1006.18 1005.40 1004.63 1003.87 1003.16 1002.53 1002.00 1001.62 1001.40
1014.46 1014.67 1014.84 1014.99 1015.16 1015.33 1015.49 1015.61 1015.65 1015.61 1015.44 1015.17 1014.79 1014.34 1013.85 1013.38 1012.95 1012.61 1012.35 1012.19 1012.11 1012.07 1012.04 1011.99 1011.88 1011.69 1011.40 1011.02 1010.54 1009.97 1009.34 1008.65 1007.92 1007.15 1006.36 1005.56 1004.76 1003.99 1003.26 1002.60 1002.05 1001.62 1001.36
1014.78 1014.94 1015.06 1015.17 1015.29 1015.42 1015.54 1015.62 1015.63 1015.56 1015.38 1015.09 1014.71 1014.26 1013.79 1013.33 1012.93 1012.60 1012.38 1012.24 1012.19 1012.18 1012.18 1012.15 1012.06 1011.89 1011.61 1011.23 1010.74 1010.17 1009.52 1008.81 1008.06 1007.28 1006.47 1005.66 1004.86 1004.07 1003.33 1002.66 1002.09 1001.64 1001.34
1015.02 1015.14 1015.23 1015.31 1015.40 1015.49 1015.57 1015.62 1015.60 1015.50 1015.30 1015.00 1014.61 1014.17 1013.71 1013.26 1012.88 1012.57 1012.36 1012.24 1012.19 1012.20 1012.21 1012.19 1012.12 1011.95 1011.68 1011.31 1010.83 1010.26 1009.61 1008.89 1008.14 1007.35 1006.54 1005.73 1004.93 1004.15 1003.41 1002.74 1002.16 1001.69 1001.36
Thickness
5825 5824 5821 5818 5813 5808 5803 5800 5797 5795 5792 5790 5787 5785 5784 5785 5785 5785 5782 5781 5780 5779 5778 5776 5775 5774 5772 5770 5769 5767 5765 5764 5765 5760 5758 5762 5765 5764 5764 5763 5762 5761 5761
5825 5823 5821 5818 5814 5809 5805 5801 5799 5797 5794 5792 5790 5789 5788 5787 5787 5786 5784 5782 5780 5779 5779 5776 5775 5774 5772 5770 5768 5766 5762 5763 5764 5759 5753 5750 5753 5758 5764 5763 5761 5761 5760
5827 5823 5820 5818 5816 5811 5808 5805 5801 5798 5796 5795 5792 5791 5788 5786 5785 5784 5783 5783 5782 5780 5778 5777 5775 5774 5772 5769 5767 5766 5762 5759 5761 5762 5755 5747 5743 5748 5756 5759 5759 5758 5757
5833 5828 5824 5821 5818 5816 5813 5808 5803 5800 5797 5796 5792 5789 5784 5781 5783 5783 5784 5783 5782 5781 5779 5777 5776 5774 5772 5769 5768 5766 5764 5761 5757 5759 5760 5757 5753 5745 5743 5750 5754 5755 5753
5839 5833 5830 5826 5824 5821 5816 5810 5805 5801 5799 5796 5794 5790 5788 5786 5787 5785 5784 5783 5782 5781 5780 5778 5776 5773 5771 5769 5768 5766 5764 5761 5758 5756 5756 5755 5754 5752 5743 5740 5745 5749 5750
5843 5838 5836 5831 5826 5824 5819 5813 5806 5802 5800 5797 5795 5792 5789 5787 5785 5783 5782 5782 5782 5781 5780 5778 5776 5773 5771 5769 5767 5765 5763 5761 5759 5757 5755 5752 5749 5747 5745 5740 5740 5741 5744
5846 5840 5835 5830 5826 5823 5819 5815 5807 5802 5800 5798 5795 5793 5791 5788 5785 5783 5782 5781 5781 5779 5779 5779 5775 5773 5771 5769 5767 5764 5761 5760 5757 5755 5754 5754 5752 5751 5748 5742 5739 5738 5740
5848 5843 5839 5834 5829 5825 5820 5815 5809 5803 5801 5798 5796 5795 5792 5790 5787 5786 5785 5783 5782 5781 5780 5778 5775 5772 5770 5768 5765 5762 5760 5759 5757 5756 5754 5752 5752 5751 5749 5744 5738 5732 5733
5849 5845 5841 5837 5832 5827 5822 5818 5811 5805 5802 5800 5797 5794 5792 5790 5788 5787 5785 5783 5782 5782 5780 5777 5774 5771 5769 5766 5763 5760 5757 5756 5755 5754 5752 5750 5750 5750 5748 5745 5741 5732 5724
5845 5845 5843 5839 5834 5830 5826 5821 5814 5808 5804 5801 5798 5796 5793 5791 5788 5787 5784 5782 5781 5780 5778 5775 5772 5769 5767 5764 5761 5758 5756 5754 5752 5751 5748 5747 5746 5746 5744 5743 5740 5736 5728
5843 5843 5842 5839 5836 5832 5827 5820 5815 5809 5804 5801 5798 5796 5793 5791 5789 5786 5784 5782 5780 5778 5775 5773 5770 5767 5765 5762 5759 5756 5753 5751 5749 5747 5745 5743 5742 5740 5739 5738 5735 5732 5728
5846 5843 5840 5837 5833 5829 5824 5819 5814 5809 5805 5801 5798 5795 5793 5791 5788 5785 5783 5781 5778 5776 5774 5771 5768 5765 5762 5759 5756 5753 5751 5748 5745 5744 5742 5739 5739 5736 5734 5732 5730 5728 5726
5842 5838 5834 5830 5827 5825 5821 5818 5814 5809 5806 5802 5797 5794 5792 5789 5786 5784 5782 5780 5777 5774 5772 5769 5765 5762 5759 5756 5754 5751 5748 5746 5743 5741 5738 5736 5733 5731 5729 5728 5725 5724 5723
5834 5831 5826 5824 5822 5821 5818 5815 5812 5810 5806 5801 5796 5792 5790 5788 5785 5783 5781 5778 5775 5772 5769 5766 5763 5760 5757 5753 5751 5748 5745 5742 5740 5738 5736 5733 5730 5727 5725 5723 5721 5719 5716
5825 5823 5820 5818 5817 5815 5814 5812 5810 5808 5805 5799 5795 5791 5790 5787 5784 5781 5778 5775 5772 5770 5766 5763 5760 5757 5754 5751 5747 5744 5742 5738 5736 5734 5731 5729 5726 5723 5721 5719 5716 5713 5710
5819 5818 5816 5813 5811 5810 5808 5807 5806 5804 5801 5796 5792 5790 5787 5784 5781 5778 5775 5771 5768 5766 5762 5759 5756 5753 5750 5746 5742 5739 5737 5734 5731 5728 5727 5725 5722 5719 5717 5714 5711 5708 5705
5813 5812 5811 5809 5807 5807 5805 5802 5802 5801 5797 5792 5789 5786 5783 5779 5777 5775 5771 5767 5764 5761 5757 5754 5751 5747 5743 5740 5738 5735 5732 5730 5727 5724 5722 5721 5720 5716 5713 5710 5708 5705 5702
5806 5806 5807 5806 5806 5805 5803 5801 5799 5796 5792 5788 5785 5783 5779 5775 5773 5770 5766 5763 5760 5756 5753 5750 5747 5743 5739 5735 5732 5730 5728 5725 5723 5720 5717 5714 5711 5710 5707 5706 5703 5701 5699
5801 5802 5803 5803 5802 5800 5799 5796 5793 5790 5786 5782 5780 5778 5775 5770 5767 5764 5761 5759 5755 5752 5749 5747 5743 5738 5734 5731 5728 5724 5722 5720 5717 5715 5713 5710 5706 5704 5701 5699 5697 5695 5693
5795 5795 5796 5795 5793 5793 5793 5789 5786 5784 5780 5778 5776 5774 5771 5767 5763 5760 5757 5755 5751 5748 5745 5742 5739 5735 5731 5726 5723 5719 5717 5714 5712 5710 5707 5704 5700 5697 5694 5692 5690 5687 5687
5785 5786 5786 5784 5784 5785 5784 5780 5779 5777 5777 5776 5773 5769 5766 5763 5760 5756 5753 5749 5746 5743 5740 5737 5734 5731 5728 5722 5718 5714 5712 5709 5706 5704 5701 5698 5694 5691 5688 5686 5684 5683 5680
5775 5776 5775 5775 5777 5777 5775 5772 5770 5772 5772 5770 5767 5764 5761 5759 5756 5751 5747 5744 5740 5736 5733 5730 5727 5725 5723 5718 5714 5710 5706 5703 5700 5698 5695 5692 5688 5685 5682 5680 5679 5677 5674
5765 5766 5766 5765 5767 5768 5766 5762 5764 5765 5764 5762 5759 5758 5756 5752 5750 5745 5740 5737 5734 5731 5728 5724 5721 5719 5718 5714 5710 5705 5701 5698 5694 5692 5689 5685 5682 5679 5677 5675 5673 5670 5668
5755 5756 5756 5754 5754 5757 5757 5757 5758 5759 5757 5754 5752 5750 5748 5745 5743 5740 5736 5731 5729 5726 5724 5720 5717 5715 5712 5709 5705 5700 5695 5691 5687 5684 5681 5678 5676 5674 5672 5670 5667 5665 5663
5746 5746 5745 5745 5746 5747 5749 5751 5752 5751 5748 5747 5745 5743 5742 5739 5735 5733 5730 5728 5725 5724 5719 5717 5714 5709 5705 5703 5699 5695 5691 5687 5683 5678 5675 5673 5671 5668 5666 5664 5663 5661 5659
5738 5737 5737 5737 5738 5739 5740 5743 5744 5743 5740 5738 5737 5736 5734 5732 5728 5725 5722 5720 5719 5717 5714 5712 5708 5706 5702 5697 5693 5688 5684 5679 5675 5671 5669 5668 5666 5664 5661 5659 5657 5655 5653